{"data":{"norad_id":60498,"intl_designator":"2024-149AG","name":"NUSAT-48 (HENRIETTA LE*)","alt_names":[],"object_type":"PAYLOAD","status":"ACTIVE","operator":null,"country":"ARGN","launch_date":"2024-08-16","launch_site_code":"AFWTR","launch_vehicle":null,"mission":null,"orbit_class":"UNKNOWN","rcs_meters":null,"size_class":null,"mass_kg":null,"dimensions":null,"purposes":[],"wikipedia_slug":null,"has_3d_model":false,"image_url":null,"decayed_at":null,"tle_current":{"epoch":"2026-05-25T03:15:24.022080Z","epoch_age_seconds":74042,"freshness":"FRESH","line1":"1 60498U 24149AG  26145.13569470  .00008566  00000+0  29739-3 0  9997","line2":"2 60498  97.3906 226.7520 0003838  20.8564 339.2832 15.30011510 98615","mean_motion":15.3001151,"eccentricity":0.0003838,"inclination_deg":97.3906,"raan_deg":226.752,"arg_perigee_deg":20.8564,"mean_anomaly_deg":339.2832,"bstar":0.00029739,"rev_number":9861,"period_min":94.116939028779,"perigee_km":473.14739181325,"apogee_km":478.40845690919,"semimajor_km":6853.9149243612,"source":"CELESTRAK","updated_at":"2026-05-25T13:38:02.117566Z"}}}